Home > Weather > Mannheim > Past weeks

Flag for Germany Past Weather in Mannheim, Baden-Württemberg, Germany — Yesterday and Last 2 Weeks

Now
66 °F

Partly cloudy.


Feels Like: 66 °F
Forecast: 60 / 75 °F
Wind: 2 mph from North

Location: Frankfurt-M-Flughafen Airport

Current Time: Jul 27, 2016 at 3:17:28 AM

Latest Report: Jul 27, 2016 at 2:20 AM


Visibility: N/A

Pressure: 30.07 "Hg

Humidity: 88%

Dew Point: 63 °F

Location of MannheimLocation

Past Weather in Mannheim — Graph

°F

Mannheim Temperature Yesterday

Maximum temperature yesterday: 84 °F (at 3:20 PM)
Minimum temperature yesterday: 64 °F (at 1:20 AM)
Average temperature yesterday: 72 °F

High & Low Weather Summary for the Past Weeks

 TemperatureHumidityPressure
High95 °F (Jul 20, 2:50 PM)100% (Jul 22, 4:50 AM)30.30 "Hg (Jul 22, 4:50 AM)
Low50 °F (Jul 16, 2:50 AM)22% (Jul 20, 6:20 PM)29.86 "Hg (Jul 12, 6:50 PM)
Average70 °F68%30.08 "Hg
* Reported Jul 12 2:20 AM — Jul 27 2:20 AM, Mannheim, Weather by CustomWeather, © 2016

Note: Actual official high and low records may vary slightly from our data, if they occured in-between our weather recording intervals... More about our weather records

Advertising

Mannheim Weather History for the Previous 24 Hours

Scroll right to see more
 ConditionsComfort  
Time TempWeatherWind HumidityBarometerVisibility
2:20 AM
Wed, Jul 27
66 °FPartly cloudy.2 mph88%30.07 "HgN/A
1:50 AM66 °FPartly cloudy.1 mph88%30.07 "HgN/A
1:20 AM66 °FPartly cloudy.3 mph88%30.07 "HgN/A
12:50 AM66 °FPartly cloudy.5 mph88%30.07 "HgN/A
12:20 AM68 °FPartly cloudy.2 mph83%30.07 "HgN/A
11:50 PM
Tue, Jul 26
68 °FPartly cloudy.6 mph83%30.07 "HgN/A
11:20 PM68 °FPartly cloudy.6 mph88%30.09 "HgN/A
10:50 PM70 °FPartly cloudy.8 mph83%30.09 "HgN/A
10:20 PM70 °FPartly cloudy.8 mph83%30.07 "HgN/A
9:50 PM72 °FBroken clouds.9 mph78%30.09 "HgN/A
9:20 PM73 °FBroken clouds.10 mph74%30.09 "HgN/A
8:50 PM75 °FBroken clouds.7 mph74%30.07 "HgN/A
8:20 PM75 °FBroken clouds.7 mph69%30.07 "HgN/A
7:50 PM75 °FBroken clouds.6 mph74%30.07 "HgN/A
7:20 PM73 °FBroken clouds.7 mph78%30.07 "HgN/A
6:50 PM75 °FBroken clouds.7 mph65%30.07 "HgN/A
6:20 PM75 °FThundershowers. Broken clouds.8 mph65%30.07 "HgN/A
5:50 PM73 °FThunderstorms. Broken clouds.13 mph65%30.07 "HgN/A
5:20 PM75 °FThunderstorms. Broken clouds.15 mph69%30.07 "HgN/A
4:50 PM81 °FScattered showers. Broken clouds.8 mph51%30.07 "HgN/A
4:20 PM81 °FBroken clouds.7 mph51%30.07 "HgN/A
3:50 PM82 °FScattered clouds.5 mph48%30.07 "HgN/A
3:20 PM84 °FBroken clouds.7 mph45%30.07 "HgN/A
2:50 PM81 °FBroken clouds.7 mph51%30.07 "HgN/A
2:20 PM79 °FScattered clouds.9 mph58%30.09 "HgN/A
1:50 PM81 °FScattered showers. Partly sunny.8 mph58%30.09 "HgN/A
1:20 PM79 °FScattered showers. Partly sunny.8 mph54%30.09 "HgN/A
12:50 PM81 °FScattered showers. Scattered clouds.10 mph54%30.09 "HgN/A
12:20 PM81 °FScattered clouds.6 mph51%30.09 "HgN/A
11:50 AM79 °FScattered clouds.3 mph58%30.09 "HgN/A
11:20 AM81 °FPassing clouds.5 mph54%30.09 "HgN/A
10:50 AM79 °FPassing clouds.5 mph58%30.09 "HgN/A
10:20 AM77 °FPassing clouds.3 mph61%30.12 "HgN/A
9:50 AM77 °FPassing clouds.3 mph65%30.12 "HgN/A
9:20 AM75 °FPassing clouds.2 mph65%30.12 "HgN/A
8:50 AM73 °FPassing clouds.2 mph69%30.12 "HgN/A
8:20 AM70 °FSunny.2 mph83%30.09 "Hg10 mi
7:50 AM68 °FSunny.1 mph83%30.12 "Hg10 mi
7:20 AM66 °FSunny.2 mph88%30.09 "Hg10 mi
6:50 AM66 °FSunny.1 mph88%30.09 "Hg10 mi
6:20 AM64 °FClear.2 mph94%30.09 "Hg10 mi
5:50 AM64 °FClear.3 mph94%30.09 "Hg10 mi
5:20 AM64 °FClear.2 mph94%30.09 "Hg10 mi
4:50 AM64 °FClear.2 mph94%30.09 "Hg10 mi
4:20 AM64 °FPassing clouds.3 mph94%30.09 "HgN/A
3:50 AM64 °FClear.1 mph88%30.09 "Hg10 mi
3:20 AM64 °FClear.3 mph94%30.09 "Hg10 mi
Weather by CustomWeather, © 2016

See weather overviewHow to use our weather pages